[Date Prev][Date Next][Thread Prev][Thread Next] - [Date Index][Thread Index][Author Index]
2 Line ISS Keps 1-6
- Subject: [sarex] 2 Line ISS Keps 1-6
- From: "Dave Larsen PhD" <doc@xxxxxxxxxxx>
- Date: Sun, 6 Jan 2002 03:05:33 -0800
ISS
1 25544U 98067A 02006.13525463 .00072904 00000-0 81132-3 0 9256
2 25544 51.6401 147.4000 0002480 75.5929 278.0515 15.62191159178741
----
Via the sarex mailing list at AMSAT.ORG courtesy of AMSAT-NA.
To unsubscribe, send "unsubscribe sarex" to Majordomo@amsat.org
AMSAT Home